This is the latest recevied weather packets stored in our database for station/object WA9AFM. If no packets are shown the sender has not sent any weather packets the latest 1 day(s).
| Time | Temp. | Humidity | Pressure | Rain* | Wind** | Luminosity | Snow |
|---|---|---|---|---|---|---|---|
| 1777977247 | 21.11° C | 80% | 993.5 hPa | 0 mm | 0 m/s | - | - |
| 1777976348 | 21.11° C | 80% | 993.6 hPa | 0 mm | 0.45 m/s, 33° | - | - |
| 1777975447 | 21.11° C | 79% | 993.7 hPa | 0 mm | 0 m/s | - | - |
| 1777974546 | 21.11° C | 79% | 993.5 hPa | 0 mm | 0.45 m/s, 40° | - | - |
| 1777973647 | 21.11° C | 80% | 993.6 hPa | 0 mm | 0 m/s | - | - |
| 1777972747 | 21.11° C | 79% | 993.8 hPa | 0 mm | 0 m/s | - | - |
| 1777971848 | 21.11° C | 80% | 993.9 hPa | 0 mm | 0.45 m/s, 336° | - | - |
| 1777970947 | 21.11° C | 79% | 993.9 hPa | 0 mm | 0.45 m/s, 50° | - | - |
| 1777970046 | 21.11° C | 79% | 993.9 hPa | 0 mm | 0 m/s | - | - |
| 1777969147 | 21.11° C | 79% | 994.1 hPa | 0 mm | 0 m/s | - | - |
| 1777968247 | 21.67° C | 79% | 994.2 hPa | 0 mm | 0.45 m/s, 38° | - | - |
| 1777967346 | 21.11° C | 79% | 994.3 hPa | 0 mm | 0.89 m/s, 48° | - | - |
| 1777966448 | 21.11° C | 79% | 994.4 hPa | 0 mm | 0.45 m/s, 353° | - | - |
| 1777965547 | 21.11° C | 79% | 994.8 hPa | 0 mm | 0.45 m/s, 341° | - | - |
| 1777964647 | 21.67° C | 78% | 994.9 hPa | 0 mm | 0 m/s | - | - |
| 1777963746 | 21.67° C | 78% | 995.1 hPa | 0 mm | 0.89 m/s, 284° | - | - |
| 1777962847 | 21.67° C | 78% | 995.2 hPa | 0 mm | 0.89 m/s, 305° | - | - |
| 1777961946 | 21.67° C | 78% | 995.3 hPa | 0 mm | 0.89 m/s, 38° | - | - |
| 1777961047 | 21.67° C | 78% | 995.6 hPa | 0 mm | 0.89 m/s, 337° | - | - |
| 1777960147 | 21.67° C | 78% | 995.8 hPa | 0 mm | 0 m/s | - | - |
| 1777959247 | 21.11° C | 78% | 995.7 hPa | 0 mm | 1.79 m/s, 308° | - | - |
| 1777958348 | 21.67° C | 77% | 995.8 hPa | 0 mm | 0.89 m/s, 324° | - | - |
* Rain latest hour (hover to see other rain measurements)
** Current wind speed in m/s (hover to see current wind gust speed)